This is the latest recevied weather packets stored in our database for station/object EA7URS-13. If no packets are shown the sender has not sent any weather packets the latest 10 day(s).
| Time | Temp. | Humidity | Pressure | Rain* | Wind** | Luminosity | Snow |
|---|---|---|---|---|---|---|---|
| 1788094086 | 32.78° C | 29% | 1010 hPa | 0 mm | - | 693 W/m² | - |
| 1788093785 | 32.78° C | 29% | 1010 hPa | 0 mm | - | 693 W/m² | - |
| 1788093483 | 32.22° C | 29% | 1010 hPa | 0 mm | - | 697 W/m² | - |
| 1788093182 | 32.22° C | 29% | 1010 hPa | 0 mm | - | 697 W/m² | - |
| 1788092881 | 31.67° C | 30% | 1010.1 hPa | 0 mm | - | 698 W/m² | - |
| 1788092580 | 31.67° C | 30% | 1010.1 hPa | 0 mm | - | 698 W/m² | - |
| 1788092279 | 31.67° C | 29% | 1010.4 hPa | 0 mm | - | 85 W/m² | - |
| 1788091978 | 31.67° C | 29% | 1010.4 hPa | 0 mm | - | 85 W/m² | - |
| 1788091677 | 31.67° C | 29% | 1010.5 hPa | 0 mm | - | 697 W/m² | - |
| 1788091376 | 31.67° C | 29% | 1010.5 hPa | 0 mm | - | 697 W/m² | - |
| 1788091075 | 31.11° C | 31% | 1010.4 hPa | 0 mm | - | 694 W/m² | - |
| 1788090774 | 31.11° C | 31% | 1010.4 hPa | 0 mm | - | 694 W/m² | - |
| 1788090473 | 31.11° C | 31% | 1010.5 hPa | 0 mm | - | 218 W/m² | - |
| 1788090172 | 31.11° C | 31% | 1010.5 hPa | 0 mm | - | 218 W/m² | - |
| 1788089871 | 31.11° C | 32% | 1010.7 hPa | 0 mm | - | 653 W/m² | - |
| 1788089570 | 31.11° C | 32% | 1010.7 hPa | 0 mm | - | 653 W/m² | - |
| 1788089269 | 31.67° C | 31% | 1010.6 hPa | 0 mm | - | 671 W/m² | - |
| 1788088968 | 31.67° C | 31% | 1010.6 hPa | 0 mm | - | 671 W/m² | - |
| 1788088666 | 30.56° C | 31% | 1010.7 hPa | 0 mm | - | 118 W/m² | - |
| 1788088365 | 30.56° C | 31% | 1010.7 hPa | 0 mm | - | 118 W/m² | - |
| 1788088064 | 31.11° C | 32% | 1010.8 hPa | 0 mm | - | 564 W/m² | - |
| 1788087763 | 31.11° C | 32% | 1010.8 hPa | 0 mm | - | 564 W/m² | - |
| 1788087462 | 30° C | 33% | 1010.9 hPa | 0 mm | - | 463 W/m² | - |
| 1788087161 | 30° C | 33% | 1010.9 hPa | 0 mm | - | 463 W/m² | - |
| 1788086860 | 29.44° C | 35% | 1010.8 hPa | 0 mm | - | 77 W/m² | - |
* Rain latest hour (hover to see other rain measurements)
** Current wind speed in m/s (hover to see current wind gust speed)